TimeCDT,TemperatureF,Dew PointF,Humidity,Sea Level PressureIn,VisibilityMPH,Wind Direction,Wind SpeedMPH,Gust SpeedMPH,PrecipitationIn,Events,Conditions,WindDirDegrees,DateUTC
12:51 AM,78.1,73.0,84,29.78,10.0,Calm,Calm,-,N/A,,Partly Cloudy,0,2013-06-27 05:51:00
1:51 AM,78.1,73.0,84,29.78,10.0,West,3.5,-,N/A,,Clear,280,2013-06-27 06:51:00
2:51 AM,77.0,72.0,84,29.81,10.0,WSW,5.8,-,N/A,,Clear,240,2013-06-27 07:51:00
3:51 AM,75.9,70.0,82,29.81,10.0,West,6.9,-,N/A,,Clear,270,2013-06-27 08:51:00
4:51 AM,75.0,69.1,82,29.84,10.0,West,8.1,-,N/A,,Partly Cloudy,260,2013-06-27 09:51:00
5:51 AM,75.0,68.0,79,29.84,10.0,West,9.2,-,N/A,,Scattered Clouds,280,2013-06-27 10:51:00
6:51 AM,75.9,68.0,76,29.84,10.0,WNW,6.9,-,N/A,,Partly Cloudy,290,2013-06-27 11:51:00
7:51 AM,80.1,69.1,69,29.85,10.0,WNW,8.1,-,N/A,,Partly Cloudy,290,2013-06-27 12:51:00
8:51 AM,82.0,70.0,67,29.86,10.0,WNW,9.2,-,N/A,,Partly Cloudy,290,2013-06-27 13:51:00
9:51 AM,84.9,71.1,63,29.86,10.0,WNW,9.2,-,N/A,,Partly Cloudy,290,2013-06-27 14:51:00
10:51 AM,88.0,70.0,55,29.86,10.0,WNW,12.7,-,N/A,,Partly Cloudy,290,2013-06-27 15:51:00
11:51 AM,89.1,71.1,55,29.87,10.0,NW,11.5,-,N/A,,Scattered Clouds,310,2013-06-27 16:51:00
12:51 PM,91.0,71.1,52,29.86,10.0,WNW,5.8,-,N/A,,Scattered Clouds,300,2013-06-27 17:51:00
1:51 PM,91.9,68.0,45,29.86,10.0,WNW,11.5,-,N/A,,Mostly Cloudy,300,2013-06-27 18:51:00
2:51 PM,93.9,66.9,41,29.86,10.0,WNW,10.4,19.6,N/A,,Mostly Cloudy,290,2013-06-27 19:51:00
3:51 PM,91.9,64.9,41,29.86,10.0,NW,15.0,23.0,N/A,,Overcast,310,2013-06-27 20:51:00
4:51 PM,91.0,68.0,47,29.86,10.0,WNW,9.2,-,N/A,,Overcast,300,2013-06-27 21:51:00
5:51 PM,89.1,66.9,48,29.82,10.0,WNW,4.6,-,N/A,,Mostly Cloudy,300,2013-06-27 22:51:00
6:51 PM,88.0,66.0,48,29.78,10.0,WSW,5.8,-,N/A,,Mostly Cloudy,250,2013-06-27 23:51:00
7:51 PM,86.0,66.9,53,29.75,10.0,NW,5.8,-,N/A,,Scattered Clouds,310,2013-06-28 00:51:00
8:51 PM,81.0,66.9,62,29.78,10.0,WNW,5.8,-,N/A,,Scattered Clouds,290,2013-06-28 01:51:00
9:51 PM,82.9,66.9,58,29.82,10.0,West,8.1,-,N/A,,Partly Cloudy,280,2013-06-28 02:51:00
10:51 PM,81.0,71.1,72,29.84,10.0,West,6.9,-,N/A,,Mostly Cloudy,260,2013-06-28 03:51:00
11:51 PM,80.1,71.1,74,29.84,10.0,West,5.8,-,N/A,,Mostly Cloudy,260,2013-06-28 04:51:00